• MPC Preparation (Info)

  • MPEC 2013-D13 : 2013 DB

    The following Minor Planet Electronic Circular may be linked-to from your own Web pages, but must not otherwise be redistributed electronically.

    A form allowing access to any MPEC is at the bottom of this page.


    Read MPEC 2013-D12 Read MPEC 2013-D14


    M.P.E.C. 2013-D13                                Issued 2013 Feb. 16, 21:37 UT
    
         The Minor Planet Electronic Circulars contain information on unusual
             minor planets and routine data on comets.  They are published
       on behalf of Commission 20 of the International Astronomical Union by the
              Minor Planet Center, Smithsonian Astrophysical Observatory,
                              Cambridge, MA 02138, U.S.A.
    
                 Prepared using the Tamkin Foundation Computer Network
    
                                  MPC@CFA.HARVARD.EDU
                URL https://www.minorplanetcenter.net/    ISSN 1523-6714
    
                                        2013 DB
    
    Observations:
         K13D00B* C2013 02 16.18692 08 10 07.53 +14 24 23.0          17.7 VrED013703
         K13D00B  C2013 02 16.19194 08 10 14.01 +14 28 43.1          17.9 VrED013703
         K13D00B  C2013 02 16.19698 08 10 20.49 +14 33 05.0          16.9 VrED013703
         K13D00B  C2013 02 16.20201 08 10 26.94 +14 37 25.6          17.4 VrED013703
         K13D00B  C2013 02 16.25887 08 11 39.80 +15 26 19.4          17.1 VrED013703
         K13D00B  C2013 02 16.25929 08 11 40.48 +15 26 42.9          17.5 VrED013703
         K13D00B  C2013 02 16.25972 08 11 41.06 +15 27 04.7          17.3 VrED013703
         K13D00B  C2013 02 16.26014 08 11 41.56 +15 27 27.1          17.4 VrED013703
         K13D00B  C2013 02 16.36843 08 14 04.74 +16 59 21.0          18.2 VrED013703
         K13D00B  C2013 02 16.36931 08 14 05.96 +17 00 05.0          17.8 VrED013703
         K13D00B  C2013 02 16.37022 08 14 07.22 +17 00 51.4          17.8 VrED013703
         K13D00B KC2013 02 16.76321808 25 27.24 +22 26 43.1                uED013J95
         K13D00B KC2013 02 16.76495408 25 29.93 +22 28 10.6                uED013J95
         K13D00B KC2013 02 16.76701108 25 33.08 +22 29 53.8          17.5 RuED013J95
         K13D00B KC2013 02 16.78032 08 25 53.21 +22 42 40.3          17.5 RuED013104
         K13D00B KC2013 02 16.78444 08 25 59.32 +22 46 07.0          17.7 RuED013104
         K13D00B KC2013 02 16.78857 08 26 05.38 +22 49 33.4          17.3 RuED013104
         K13D00B KC2013 02 16.85484 08 27 42.14 +23 44 02.0          17.4 RqED013204
         K13D00B KC2013 02 16.85594 08 27 43.74 +23 44 56.5                qED013204
         K13D00B KC2013 02 16.85704 08 27 45.33 +23 45 50.4                qED013204
         K13D00B KC2013 02 16.85815 08 27 46.95 +23 46 45.6                qED013204
         K13D00B KC2013 02 16.85926 08 27 48.53 +23 47 40.1                qED013204
         K13D00B KC2013 02 16.86234 08 27 50.26 +23 50 15.4          17.2 VuED013595
         K13D00B KC2013 02 16.86449 08 27 53.34 +23 52 00.8          17.6 VuED013595
         K13D00B KC2013 02 16.86665 08 27 56.44 +23 53 46.8          17.6 VuED013595
    
    Observer details:
    104 San Marcello Pistoiese.  Observers P. Bacci, L. Tesi, G. Fagioli,
        D. Antonacci.  Measurers P. Bacci, D. Antonacci.  0.60-m f/4 reflector
        + CCD.
    204 Schiaparelli Observatory.  Observer L. Buzzi.  0.38-m f/6.8 reflector
        + CCD.
    595 Farra d'Isonzo.  Observers A. Bresan, E. Pettarin.  0.40-m f/4.5 reflector
        + CCD.
    703 Catalina Sky Survey.  Observer A. D. Grauer.  Measurers A. Boattini,
        E. J. Christensen, A. R. Gibbs, A. D. Grauer, R. E. Hill, J. A. Johnson,
        R. A. Kowalski, S. M. Larson, R. H. McNaught.  0.68-m Schmidt + CCD.
    J95 Great Shefford.  Observer P. Birtwhistle.  0.40-m f/6.0 Schmidt-Cassegrain
        + CCD.
    
    Orbital elements:
    2013 DB                                                  Earth MOID = 0.0114 AU
    Epoch 2013 Apr. 18.0 TT = JDT 2456400.5                 MPC
    M  68.11111              (2000.0)            P               Q
    n   0.82443528     Peri.  336.75195     -0.56636411     -0.81803447
    a   1.1264148      Node   147.48667     +0.78241016     -0.57190833
    e   0.1200846      Incl.   10.75002     +0.25897111     -0.06115926
    P   1.20           H   25.9           G   0.15           U   5
    Residuals in seconds of arc
    130216 703  0.0   0.2+    130216 703  0.1-  0.3-    130216 204  0.0   0.2+
    130216 703  0.1+  0.3-    130216 703  0.0   0.2+    130216 204  0.1+  0.1-
    130216 703  0.0   0.1+    130216 J95  0.1-  0.2-    130216 204  0.4+  0.5+
    130216 703  0.2-  0.2-    130216 J95  0.1+  0.1+    130216 204  0.1+  0.3+
    130216 703 (1.9-  1.9-)   130216 J95  0.3-  0.0     130216 595  0.0   0.4-
    130216 703  0.1+  0.0     130216 104  0.1+  0.2+    130216 595  0.0   0.5-
    130216 703  0.5+  0.3-    130216 104  0.5+  0.5+    130216 595  0.1+  0.4-
    130216 703  0.1-  0.5+    130216 104  0.1+  0.2+
    130216 703  0.2-  0.1+    130216 204  0.2-  0.1-
    
    Ephemeris:
    2013 DB                  a,e,i = 1.13, 0.12, 11                  q = 0.9911
    Date    TT    R. A. (2000) Decl.     Delta      r     Elong.  Phase     V
    2013 01 17    04 51 32.2 -59 39 32   0.1001  0.9910    91.2    83.0    23.8
    ...
    2013 02 01    05 24 21.7 -55 01 23   0.05322 0.9913    94.8    82.1    22.4
    ...
    2013 02 09    06 12 51.7 -44 01 44   0.02764 0.9946   106.0    72.5    20.6
    ...
    2013 02 15    07 41 49.8 -02 12 23   0.01334 0.9986   143.9    35.6    18.0
    2013 02 16    08 05 11.4 +11 46 40   0.01283 0.9993   152.4    27.2    17.7
    2013 02 17    08 31 26.1 +25 44 21   0.01324 1.0001   154.7    25.0    17.7
    ...
    2013 02 23    11 31 19.0 +63 15 58   0.02739 1.0055   125.3    53.4    20.1
    ...
    2013 03 03    13 37 37.4 +66 42 22   0.05340 1.0143   114.1    63.1    21.8
    ...
    2013 03 18    14 28 21.2 +64 44 37   0.1026  1.0353   110.2    64.4    23.3
    
    A. U. Tomatic                (C) Copyright 2013 MPC           M.P.E.C. 2013-D13
    

    Read MPEC 2013-D12 Read MPEC 2013-D14


    MPEC number:

    Enter an MPEC number in one of the following forms:

    • 1997-B01 (the full form)
    • J97B01 (the packed version of the full form)
    • B01 (the abbreviated form)